Location: Laterina
(43.5167°N, 11.7167°E)
Time: 16:43:27
(UTC+00:00)

Lacrosse 5 rocket - Pass Details

Date: 24 September 2020
Orbit: 460 x 636 km, 57.0° (Epoch: 25 October)

Event Time Altitude Azimuth Distance (km) Brightness Sun altitude
Rises 19:14:18 0° 314° (NW) 2,820 6.1 -23.5°
Reaches altitude 10° 19:17:07 10° 333° (NNW) 1,949 4.8 -24.0°
Maximum altitude 19:20:18 19° 18° (NNE) 1,484 3.5 -24.5°
Enters shadow 19:20:39 19° 24° (NNE) 1,493 3.5 -24.5°
